TimeCST,TemperatureF,Dew PointF,Humidity,Sea Level PressureIn,VisibilityMPH,Wind Direction,Wind SpeedMPH,Gust SpeedMPH,PrecipitationIn,Events,Conditions,WindDirDegrees,DateUTC
12:53 AM,44.1,28.0,53,29.92,10.0,East,6.9,-,N/A,,Clear,90,2013-02-24 06:53:00
1:53 AM,44.1,28.9,55,29.91,10.0,ESE,8.1,-,N/A,,Clear,110,2013-02-24 07:53:00
2:53 AM,43.0,28.9,58,29.92,10.0,SE,8.1,-,N/A,,Clear,140,2013-02-24 08:53:00
3:53 AM,39.0,28.0,65,29.91,10.0,SE,5.8,-,N/A,,Clear,130,2013-02-24 09:53:00
4:53 AM,41.0,28.0,60,29.90,10.0,East,4.6,-,N/A,,Clear,100,2013-02-24 10:53:00
5:53 AM,37.4,28.4,70,29.91,10.0,SE,5.8,-,N/A,,Clear,140,2013-02-24 11:53:00
6:53 AM,39.0,28.9,67,29.91,10.0,ESE,4.6,-,N/A,,Clear,110,2013-02-24 12:53:00
7:53 AM,44.1,33.1,65,29.92,10.0,SE,11.5,-,N/A,,Clear,130,2013-02-24 13:53:00
8:53 AM,48.9,36.0,61,29.94,10.0,SE,15.0,-,N/A,,Clear,140,2013-02-24 14:53:00
9:53 AM,54.0,37.9,55,29.92,10.0,SSE,16.1,-,N/A,,Clear,160,2013-02-24 15:53:00
10:53 AM,59.0,41.0,51,29.91,10.0,SSE,15.0,-,N/A,,Clear,160,2013-02-24 16:53:00
11:53 AM,64.0,41.0,43,29.87,10.0,SSE,12.7,21.9,N/A,,Partly Cloudy,150,2013-02-24 17:53:00
12:53 PM,68.0,39.0,35,29.83,10.0,SSE,15.0,25.3,N/A,,Partly Cloudy,150,2013-02-24 18:53:00
1:53 PM,70.0,37.0,30,29.77,10.0,SE,13.8,26.5,N/A,,Partly Cloudy,140,2013-02-24 19:53:00
2:53 PM,71.1,37.9,30,29.74,10.0,SE,19.6,26.5,N/A,,Partly Cloudy,140,2013-02-24 20:53:00
3:29 PM,71.6,37.4,29,29.72,10.0,SE,16.1,24.2,N/A,,Scattered Clouds,130,2013-02-24 21:29:00
3:53 PM,71.1,37.9,30,29.70,10.0,SE,18.4,25.3,N/A,,Scattered Clouds,130,2013-02-24 21:53:00
4:53 PM,71.1,37.0,29,29.70,10.0,SSE,17.3,24.2,N/A,,Partly Cloudy,150,2013-02-24 22:53:00
5:53 PM,68.0,34.0,28,29.70,10.0,SE,15.0,-,N/A,,Scattered Clouds,140,2013-02-24 23:53:00
6:53 PM,64.9,34.0,32,29.70,10.0,SE,12.7,-,N/A,,Scattered Clouds,130,2013-02-25 00:53:00
7:53 PM,62.1,34.0,35,29.69,10.0,ESE,8.1,-,N/A,,Scattered Clouds,120,2013-02-25 01:53:00
8:53 PM,61.0,36.0,39,29.69,10.0,ESE,12.7,-,N/A,,Scattered Clouds,120,2013-02-25 02:53:00
9:53 PM,60.1,37.0,42,29.69,10.0,ESE,10.4,-,N/A,,Scattered Clouds,120,2013-02-25 03:53:00
10:53 PM,57.9,37.9,47,29.66,10.0,ESE,10.4,-,N/A,,Partly Cloudy,120,2013-02-25 04:53:00
11:53 PM,57.9,39.9,51,29.60,10.0,ESE,12.7,-,N/A,,Scattered Clouds,120,2013-02-25 05:53:00